User: anonymous   Login
Location: ??
(35.5052°N, 139.7262°E)
Time: 21:06:38
(UTC+00:00)
Language:

NOAA 16 DEB - Orbit

View from above orbital plane
View from above orbital plane
View from above satellite
View from above satellite

Ground track
Ground track

The orbit data is extracted from the following two-line orbital elements,

1 41506U 00055ME  22024.28379960  .00002703  00000-0  10285-2 0  9990
2 41506  98.7979 141.1446 0053176  33.1583 327.2913 14.31001827313778
Epoch (UTC): 24 January 2022 06:48:40
Eccentricity: 0.0053176
inclination: 98.7979°
perigee height: 750 km
apogee height: 826 km
right ascension of ascending node: 141.1446°
argument of perigee: 33.1583°
revolutions per day: 14.31001827
mean anomaly at epoch: 327.2913°
orbit number at epoch: 31377

The dashed part of the orbit path shows where the satellite is in the earth's shadow,  

DLR